{"data":{"norad_id":41891,"epoch":"2026-05-25T01:49:44.131872Z","epoch_age_seconds":64907,"freshness":"FRESH","line1":"1 41891U 16078H   26145.07620523  .00025332  00000+0  31709-3 0  9995","line2":"2 41891  34.9417  25.2164 0007836 316.9957  43.0154 15.58745490525363","mean_motion":15.5874549,"eccentricity":0.0007836,"inclination_deg":34.9417,"raan_deg":25.2164,"arg_perigee_deg":316.9957,"mean_anomaly_deg":43.0154,"bstar":0.00031709,"rev_number":52536,"period_min":92.381983411545,"perigee_km":385.98223911788,"apogee_km":396.59128003389,"semimajor_km":6769.4237595759,"source":"CELESTRAK","updated_at":"2026-05-25T13:38:12.247845Z"}}